This is the latest recevied weather packets stored in our database for station/object K8WEH. If no packets are shown the sender has not sent any weather packets the latest 10 day(s).
| Time | Temp. | Humidity | Pressure | Rain* | Wind** | Luminosity | Snow |
|---|---|---|---|---|---|---|---|
| 1777834553 | 15.56° C | 35% | 1019.6 hPa | 0 mm | - | - | - |
| 1777834252 | 15.56° C | 35% | 1019.7 hPa | 0 mm | - | - | - |
| 1777833951 | 16.11° C | 37% | 1019.8 hPa | 0 mm | - | - | - |
| 1777833651 | 15.56° C | 36% | 1020.1 hPa | 0 mm | - | - | - |
| 1777833349 | 15.56° C | 37% | 1020.1 hPa | 0 mm | - | - | - |
| 1777833048 | 15.56° C | 35% | 1020.3 hPa | 0 mm | - | - | - |
| 1777832748 | 15° C | 37% | 1020.3 hPa | 0 mm | - | - | - |
| 1777832447 | 15° C | 35% | 1020.3 hPa | 0 mm | - | - | - |
| 1777832156 | 15.56° C | 36% | 1020.4 hPa | 0 mm | - | - | - |
| 1777831846 | 15° C | 39% | 1020.5 hPa | 0 mm | - | - | - |
| 1777831545 | 15.56° C | 38% | 1020.5 hPa | 0 mm | - | - | - |
| 1777831244 | 16.11° C | 36% | 1020.6 hPa | 0 mm | - | - | - |
| 1777830943 | 16.11° C | 38% | 1020.9 hPa | 0 mm | - | - | - |
| 1777830641 | 15.56° C | 39% | 1020.8 hPa | 0 mm | - | - | - |
| 1777830341 | 15.56° C | 40% | 1020.8 hPa | 0 mm | - | - | - |
| 1777830040 | 15.56° C | 40% | 1020.9 hPa | 0 mm | - | - | - |
| 1777829739 | 15° C | 41% | 1021 hPa | 0 mm | - | - | - |
| 1777829452 | 15° C | 39% | 1021 hPa | 0 mm | - | - | - |
| 1777829138 | 15° C | 42% | 1021.2 hPa | 0 mm | - | - | - |
| 1777828837 | 14.44° C | 42% | 1021.3 hPa | 0 mm | - | - | - |
| 1777828539 | 13.89° C | 42% | 1021.4 hPa | 0 mm | - | - | - |
| 1777828236 | 13.33° C | 44% | 1021.6 hPa | 0 mm | - | - | - |
| 1777827935 | 13.33° C | 42% | 1021.6 hPa | 0 mm | - | - | - |
| 1777827636 | 13.33° C | 47% | 1021.7 hPa | 0 mm | - | - | - |
| 1777827335 | 13.33° C | 42% | 1021.8 hPa | 0 mm | - | - | - |
* Rain latest hour (hover to see other rain measurements)
** Current wind speed in m/s (hover to see current wind gust speed)